| time (UTC) | temp F | wind direction | speed MPH | gust MPH | rain 1hr in | rain 24hr in | rain mn in | humidity % | barometer mb |
| 20260506100005 | 53 | 225 | 1.0 | 6.0 | 0.08 | 0.31 | 0.31 | 98 | 9.7 |
| 20260506094004 | 53 | 225 | 1.0 | 4.0 | 0.06 | 0.28 | 0.28 | 99 | 9.5 |
| 20260506093004 | 53 | 225 | 1.0 | 3.0 | 0.06 | 0.26 | 0.26 | 99 | 9.5 |
| 20260506092004 | 53 | 202 | 1.0 | 4.0 | 0.06 | 0.25 | 0.25 | 98 | 9.3 |
| 20260506091005 | 53 | 202 | 1.0 | 3.0 | 0.06 | 0.24 | 0.24 | 98 | 9.3 |
| 20260506090005 | 53 | 225 | 0.0 | 3.0 | 0.06 | 0.24 | 0.24 | 98 | 9.2 |
| 20260506085004 | 53 | 202 | 1.0 | 5.0 | 0.07 | 0.23 | 0.23 | 98 | 9.0 |
| 20260506084004 | 52 | 225 | 2.0 | 6.0 | 0.07 | 0.21 | 0.21 | 98 | 8.9 |
| 20260506083004 | 52 | 225 | 4.0 | 8.0 | 0.08 | 0.20 | 0.20 | 98 | 8.8 |
| 20260506081004 | 52 | 225 | 3.0 | 6.0 | 0.09 | 0.18 | 0.18 | 98 | 8.6 |
| 20260506073004 | 52 | 225 | 6.0 | 10.0 | 0.09 | 0.13 | 0.13 | 99 | 8.2 |
| 20260506072004 | 52 | 225 | 5.0 | 10.0 | 0.08 | 0.10 | 0.10 | 99 | 8.1 |
| 20260506071004 | 52 | 225 | 5.0 | 11.0 | 0.06 | 0.09 | 0.09 | 99 | 7.9 |
| 20260506062004 | 52 | 202 | 0.0 | 3.0 | 0.02 | 0.02 | 0.02 | 99 | 7.6 |
| 20260506061004 | 52 | 202 | 0.0 | 2.0 | 0.02 | 0.02 | 0.02 | 99 | 7.5 |
| 20260506045004 | 52 | 0 | 0.0 | 0.0 | 0.00 | 0.01 | 0.01 | 99 | 7.1 |
| 20260506044004 | 52 | 0 | 0.0 | 0.0 | 0.00 | 0.01 | 0.01 | 99 | 7.1 |
| 20260506043004 | 52 | 0 | 0.0 | 0.0 | 0.00 | 0.01 | 0.01 | 99 | 7.2 |
| 20260506042004 | 52 | 0 | 0.0 | 0.0 | 0.00 | 0.01 | 0.01 | 99 | 7.3 |
| 20260506041004 | 52 | 0 | 0.0 | 0.0 | 0.00 | 0.01 | 0.01 | 98 | 7.3 |
| 20260506040004 | 52 | 0 | 0.0 | 0.0 | 0.00 | 0.01 | 0.01 | 98 | 7.3 |
| 20260506035004 | 52 | 0 | 0.0 | 0.0 | 0.00 | 0.01 | 0.01 | 98 | 7.3 |
| 20260506034004 | 52 | 202 | 0.0 | 3.0 | 0.00 | 0.01 | 0.01 | 98 | 7.3 |
| 20260506033004 | 52 | 0 | 0.0 | 0.0 | 0.00 | 0.01 | 0.01 | 98 | 7.3 |
| 20260506032004 | 52 | 0 | 0.0 | 0.0 | 0.00 | 0.01 | 0.01 | 98 | 7.4 |
| 20260506031004 | 52 | 360 | 0.0 | 3.0 | 0.00 | 0.01 | 0.01 | 98 | 7.5 |
| 20260506030004 | 52 | 0 | 0.0 | 0.0 | 0.00 | 0.01 | 0.01 | 98 | 7.7 |
| 20260506025004 | 52 | 0 | 0.0 | 0.0 | 0.00 | 0.01 | 0.01 | 98 | 7.6 |
| 20260506024004 | 53 | 0 | 0.0 | 0.0 | 0.00 | 0.01 | 0.01 | 98 | 7.8 |
| 20260506023004 | 53 | 0 | 0.0 | 0.0 | 0.00 | 0.01 | 0.01 | 98 | 7.7 |
| 20260506022004 | 53 | 0 | 0.0 | 0.0 | 0.00 | 0.01 | 0.01 | 97 | 7.7 |
| 20260506021004 | 53 | 0 | 0.0 | 0.0 | 0.00 | 0.01 | 0.01 | 97 | 7.9 |
| 20260506020004 | 52 | 0 | 0.0 | 0.0 | 0.00 | 0.01 | 0.01 | 97 | 7.9 |
| 20260506015004 | 53 | 360 | 0.0 | 2.0 | 0.00 | 0.01 | 0.01 | 97 | 8.0 |
| 20260506014004 | 53 | 180 | 0.0 | 4.0 | 0.00 | 0.01 | 0.01 | 97 | 8.1 |
| 20260506013004 | 53 | 157 | 1.0 | 5.0 | 0.00 | 0.01 | 0.01 | 97 | 8.1 |
| 20260506012004 | 53 | 157 | 3.0 | 6.0 | 0.00 | 0.01 | 0.01 | 96 | 8.3 |
| 20260506010004 | 53 | 157 | 1.0 | 6.0 | 0.00 | 0.01 | 0.01 | 96 | 8.7 |
| 20260506005004 | 53 | 157 | 2.0 | 5.0 | 0.00 | 0.01 | 0.01 | 96 | 8.7 |
| 20260506004004 | 53 | 202 | 0.0 | 3.0 | 0.00 | 0.01 | 0.01 | 95 | 8.8 |
| 20260506003004 | 53 | 157 | 1.0 | 4.0 | 0.00 | 0.01 | 0.01 | 95 | 8.9 |
| 20260506002003 | 53 | 0 | 0.0 | 0.0 | 0.00 | 0.01 | 0.01 | 95 | 9.0 |
| 20260506001004 | 53 | 157 | 0.0 | 1.0 | 0.00 | 0.01 | 0.01 | 94 | 9.1 |
| 20260506000004 | 53 | 157 | 3.0 | 5.0 | 0.00 | 0.01 | 0.01 | 94 | 9.1 |
| 20260505235004 | 53 | 135 | 1.0 | 3.0 | 0.00 | 0.01 | 0.01 | 95 | 9.1 |
| 20260505234004 | 53 | 0 | 0.0 | 0.0 | 0.00 | 0.01 | 0.01 | 96 | 9.2 |
| 20260505233004 | 53 | 0 | 0.0 | 0.0 | 0.00 | 0.01 | 0.01 | 95 | 9.2 |
| 20260505232004 | 54 | 0 | 0.0 | 0.0 | 0.00 | 0.01 | 0.01 | 95 | 9.3 |
| 20260505231003 | 54 | 135 | 0.0 | 1.0 | 0.01 | 0.01 | 0.01 | 95 | 9.5 |
| 20260505230004 | 54 | 157 | 2.0 | 7.0 | 0.01 | 0.01 | 0.01 | 96 | 9.6 |
| 20260505225003 | 54 | 180 | 1.0 | 4.0 | 0.01 | 0.01 | 0.01 | 96 | 9.8 |
| 20260505224003 | 54 | 157 | 3.0 | 7.0 | 0.01 | 0.01 | 0.01 | 97 | 9.9 |
| 20260505223003 | 54 | 180 | 0.0 | 2.0 | 0.01 | 0.01 | 0.01 | 97 | 9.6 |
| 20260505222003 | 54 | 0 | 0.0 | 0.0 | 0.01 | 0.01 | 0.01 | 97 | 9.7 |
| 20260505221003 | 54 | 0 | 0.0 | 0.0 | 0.00 | 0.00 | 0.00 | 97 | 9.7 |
| 20260505220003 | 54 | 0 | 0.0 | 0.0 | 0.10 | 0.40 | 0.40 | 96 | 9.7 |
| 20260505214004 | 55 | 270 | 3.0 | 10.0 | 0.09 | 0.39 | 0.39 | 95 | 9.7 |
| 20260505213003 | 56 | 247 | 5.0 | 12.0 | 0.05 | 0.35 | 0.35 | 96 | 9.8 |
| 20260505212003 | 56 | 247 | 2.0 | 6.0 | 0.00 | 0.30 | 0.30 | 97 | 9.8 |
| 20260505211004 | 56 | 202 | 1.0 | 3.0 | 0.00 | 0.30 | 0.30 | 97 | 9.8 |
| 20260505210004 | 56 | 225 | 0.0 | 3.0 | 0.00 | 0.30 | 0.30 | 96 | 9.7 |
| 20260505202003 | 55 | 157 | 1.0 | 4.0 | 0.00 | 0.30 | 0.30 | 96 | 9.2 |
| 20260505201004 | 55 | 135 | 3.0 | 5.0 | 0.00 | 0.30 | 0.30 | 96 | 9.0 |
| 20260505200003 | 55 | 0 | 0.0 | 0.0 | 0.00 | 0.30 | 0.30 | 96 | 8.9 |
| 20260505195004 | 55 | 0 | 0.0 | 0.0 | 0.00 | 0.30 | 0.30 | 96 | 8.9 |
| 20260505194003 | 55 | 0 | 0.0 | 0.0 | 0.00 | 0.30 | 0.30 | 96 | 8.9 |
| 20260505193003 | 55 | 0 | 0.0 | 0.0 | 0.00 | 0.30 | 0.30 | 95 | 8.7 |
| 20260505192003 | 56 | 0 | 0.0 | 0.0 | 0.00 | 0.30 | 0.30 | 95 | 8.6 |
| 20260505191003 | 56 | 0 | 0.0 | 0.0 | 0.00 | 0.30 | 0.30 | 94 | 8.4 |
| 20260505190004 | 57 | 0 | 0.0 | 0.0 | 0.00 | 0.30 | 0.30 | 92 | 8.4 |
| 20260505185003 | 57 | 0 | 0.0 | 0.0 | 0.00 | 0.30 | 0.30 | 91 | 8.4 |
| 20260505184003 | 57 | 157 | 0.0 | 2.0 | 0.00 | 0.30 | 0.30 | 92 | 8.3 |
| 20260505183003 | 58 | 157 | 2.0 | 5.0 | 0.00 | 0.30 | 0.30 | 92 | 8.2 |
| 20260505182003 | 58 | 157 | 3.0 | 6.0 | 0.00 | 0.30 | 0.30 | 91 | 8.3 |
| 20260505181003 | 59 | 157 | 3.0 | 6.0 | 0.00 | 0.30 | 0.30 | 91 | 8.3 |
| 20260505180003 | 59 | 157 | 2.0 | 7.0 | 0.00 | 0.30 | 0.30 | 90 | 8.3 |
| 20260505174003 | 59 | 157 | 3.0 | 5.0 | 0.00 | 0.30 | 0.30 | 93 | 8.3 |
| 20260505173003 | 59 | 157 | 1.0 | 4.0 | 0.00 | 0.30 | 0.30 | 94 | 8.4 |
| 20260505172003 | 58 | 157 | 1.0 | 4.0 | 0.00 | 0.30 | 0.30 | 93 | 8.4 |
| 20260505171003 | 58 | 157 | 1.0 | 5.0 | 0.00 | 0.30 | 0.30 | 93 | 8.4 |
| 20260505170004 | 58 | 157 | 4.0 | 7.0 | 0.00 | 0.30 | 0.30 | 94 | 8.4 |
| 20260505165003 | 58 | 157 | 3.0 | 6.0 | 0.00 | 0.30 | 0.30 | 94 | 8.5 |
| 20260505164003 | 58 | 157 | 4.0 | 6.0 | 0.00 | 0.30 | 0.30 | 94 | 8.8 |
| 20260505163003 | 59 | 135 | 5.0 | 9.0 | 0.00 | 0.30 | 0.30 | 94 | 8.8 |
| 20260505162003 | 58 | 135 | 6.0 | 10.0 | 0.00 | 0.30 | 0.30 | 96 | 8.8 |
| 20260505161003 | 58 | 157 | 6.0 | 9.0 | 0.02 | 0.30 | 0.30 | 95 | 8.8 |
| 20260505153003 | 56 | 157 | 5.0 | 10.0 | 0.04 | 0.30 | 0.30 | 97 | 9.0 |
| 20260505152003 | 55 | 157 | 5.0 | 10.0 | 0.05 | 0.30 | 0.30 | 97 | 9.1 |
| 20260505151003 | 55 | 180 | 2.0 | 6.0 | 0.03 | 0.28 | 0.28 | 96 | 9.2 |
| 20260505125002 | 59 | 225 | 6.0 | 13.0 | 0.00 | 0.23 | 0.23 | 92 | 8.7 |
| 20260505124002 | 60 | 202 | 1.0 | 5.0 | 0.00 | 0.23 | 0.23 | 91 | 8.4 |
| 20260505123002 | 62 | 157 | 3.0 | 7.0 | 0.00 | 0.23 | 0.23 | 85 | 8.4 |
| 20260505121003 | 62 | 157 | 5.0 | 11.0 | 0.00 | 0.23 | 0.23 | 87 | 8.4 |
| 20260505120003 | 62 | 157 | 4.0 | 9.0 | 0.00 | 0.23 | 0.23 | 88 | 8.5 |
| 20260505115002 | 62 | 157 | 3.0 | 9.0 | 0.00 | 0.23 | 0.23 | 87 | 8.6 |
| 20260505114002 | 61 | 157 | 7.0 | 15.0 | 0.00 | 0.23 | 0.23 | 92 | 8.7 |
| 20260505113002 | 60 | 157 | 6.0 | 12.0 | 0.00 | 0.23 | 0.23 | 94 | 8.9 |
| 20260505111002 | 60 | 157 | 4.0 | 12.0 | 0.00 | 0.23 | 0.23 | 90 | 9.0 |